Regional Weather Roundup
Issued by NWS

Home | Current Version | Previous Version | Text Only | Print | Product List | Glossary Off
Versions: 1 2 3 4 5 6 7 8 9 10 11 12 13 14 15 16 17 18 19 20 21 22 23 24 25 26 27 28 29 30 31 32 33 34 35 36 37 38 39 40 41 42 43 44 45 46 47 48 49 50

000
ASUS43 KFSD 140702
RWRSD

WEATHER ROUNDUP FOR SOUTH DAKOTA
NATIONAL WEATHER SERVICE SIOUX FALLS SD
100 AM CST SUN FEB 14 2016

NOTE: "FAIR" INDICATES FEW OR NO CLOUDS BELOW 12,000 FEET WITH NO
SIGNIFICANT WEATHER AND/OR OBSTRUCTIONS TO VISIBILITY.


SDZ001>005-009-010-012>017-140800-
NORTHWEST AND NORTH CENTRAL SOUTH DAKOTA

CITY           SKY/WX    TMP DP  RH WIND       PRES   REMARKS
BUFFALO          N/A     36  30  79 NW24      29.76F
FAITH            N/A     36  29  75 NW23      29.79F
MOBRIDGE       CLOUDY    19  15  84 SE14      29.79F WCI   6
$$

SDZ012>016-024>037-041>051-057-063-072>074-140800-
SOUTHWEST AND SOUTH CENTRAL SOUTH DAKOTA

CITY           SKY/WX    TMP DP  RH WIND       PRES   REMARKS
RAPID CTY ARPT CLEAR     39  27  62 NW24G32   29.86F
PIERRE         LGT SNOW  24  23  96 SE6       29.82F VSB 1   WCI  17
CUSTER         PTCLDY    31  20  63 NW9G32    29.89S WCI  23
ELLSWORTH AFB  CLEAR     40  28  63 NW28G40   29.85S
PHILIP         CLOUDY    37  33  85 W15G24    29.84S
PINE RIDGE     CLEAR     34  29  82 W7        29.93S WCI  28
WINNER         LGT SNOW  32  28  85 NW12      29.81S FOG     WCI  23
$$

SDZ004>011-016>023-039-040-140800-
NORTHEAST SOUTH DAKOTA

CITY           SKY/WX    TMP DP  RH WIND       PRES   REMARKS
ABERDEEN       HAZE      15  10  80 S23       29.94F VSB 1/2 WCI  -3
WATERTOWN      MIX PCPN  12   7  80 SE21G28   29.95F WCI  -7
BROOKINGS      LGT SNOW  11   7  84 SE22      29.98F FOG     WCI  -8
SISSETON         N/A     11   8  88 S21       30.01F WCI  -8
$$

SDZ017-020-022-023-036>040-048>070-140800-
SOUTHEAST SOUTH DAKOTA

CITY           SKY/WX    TMP DP  RH WIND       PRES   REMARKS
SIOUX FALLS    CLOUDY    13   7  77 SE17G28   30.00F WCI  -4
HURON          LGT SNOW  14   9  80 SE20G29   29.93F WCI  -3
MITCHELL       CLOUDY    17   9  70 SE20      29.96F WCI   1
YANKTON        CLOUDY    16   7  67 SE21      29.99F WCI  -2
$$

ABBREVIATIONS USED IN REMARKS
   TC - TEMPERATURE IN CELSIUS
  WCI - WIND CHILL INDEX
   HX - HEAT INDEX
  VSB - VISIBILITY




USA.gov is the U.S. government's official web portal to all federal, state and local government web resources and services.